Time,TemperatureF,DewpointF,PressureIn,WindDirection,WindDirectionDegrees,WindSpeedMPH,WindSpeedGustMPH,Humidity,HourlyPrecipIn,Conditions,Clouds,dailyrainin,SoftwareType,DateUTC
2013-03-12 14:35:00,52.0,50.0,29.68,SE,139,8.0,17.0,93,0.00,,,1.31,Wunderground v.1.15,2013-03-12 18:35:00,
2013-03-12 14:40:00,52.0,50.0,29.69,SE,136,8.0,17.0,93,0.00,,,1.31,Wunderground v.1.15,2013-03-12 18:40:00,
2013-03-12 14:45:00,51.7,49.5,29.69,ESE,120,9.0,9.0,92,0.00,,,1.31,Wunderground v.1.15,2013-03-12 18:45:00,
2013-03-12 14:55:00,51.1,48.6,29.69,ESE,118,9.0,16.0,91,0.00,,,1.31,Wunderground v.1.15,2013-03-12 18:55:00,
2013-03-12 15:00:00,51.0,48.2,29.69,ESE,116,9.0,16.0,90,0.00,,,1.31,Wunderground v.1.15,2013-03-12 19:00:00,
2013-03-12 15:10:00,50.9,47.8,29.69,ESE,120,9.0,9.0,89,0.00,,,1.31,Wunderground v.1.15,2013-03-12 19:10:00,
2013-03-12 15:20:00,50.7,47.6,29.69,ESE,121,9.0,17.0,89,0.00,,,1.31,Wunderground v.1.15,2013-03-12 19:20:00,
2013-03-12 15:25:00,50.5,47.1,29.69,ESE,118,10.0,17.0,88,0.00,,,1.31,Wunderground v.1.15,2013-03-12 19:25:00,
2013-03-12 15:30:00,50.4,47.0,29.69,SE,142,10.0,10.0,88,0.00,,,1.31,Wunderground v.1.15,2013-03-12 19:30:00,
2013-03-12 15:40:00,50.0,46.6,29.70,ESE,113,10.0,20.0,88,0.00,,,1.31,Wunderground v.1.15,2013-03-12 19:40:00,
2013-03-12 15:45:00,49.9,46.5,29.70,SE,136,11.0,20.0,88,0.00,,,1.31,Wunderground v.1.15,2013-03-12 19:45:00,
2013-03-12 15:55:00,49.9,46.2,29.70,ESE,110,9.0,20.0,87,0.00,,,1.31,Wunderground v.1.15,2013-03-12 19:55:00,
2013-03-12 16:00:00,49.8,45.8,29.70,ESE,117,10.0,20.0,86,0.00,,,1.31,Wunderground v.1.15,2013-03-12 20:00:00,
2013-03-12 16:10:00,49.8,45.8,29.71,ESE,104,10.0,10.0,86,0.00,,,1.31,Wunderground v.1.15,2013-03-12 20:10:00,
2013-03-12 16:15:00,49.7,45.4,29.71,ESE,123,9.0,19.0,85,0.00,,,1.31,Wunderground v.1.15,2013-03-12 20:15:00,
2013-03-12 16:25:00,49.3,45.0,29.72,SE,135,12.0,19.0,85,0.00,,,1.31,Wunderground v.1.15,2013-03-12 20:25:00,
2013-03-12 16:35:00,49.1,44.5,29.72,SE,131,10.0,19.0,84,0.00,,,1.31,Wunderground v.1.15,2013-03-12 20:35:00,
2013-03-12 16:45:00,48.9,44.3,29.73,East,86,12.0,12.0,84,0.00,,,1.31,Wunderground v.1.15,2013-03-12 20:45:00,
2013-03-12 16:50:00,48.8,44.2,29.74,ESE,111,11.0,18.0,84,0.00,,,1.31,Wunderground v.1.15,2013-03-12 20:50:00,
2013-03-12 17:00:00,48.7,44.4,29.75,SE,129,9.0,9.0,85,0.00,,,1.31,Wunderground v.1.15,2013-03-12 21:00:00,
2013-03-12 17:10:00,48.0,43.1,29.75,SSE,148,11.0,11.0,83,0.00,,,1.31,Wunderground v.1.15,2013-03-12 21:10:00,
2013-03-12 17:15:00,47.8,42.9,29.75,SE,124,10.0,20.0,83,0.00,,,1.31,Wunderground v.1.15,2013-03-12 21:15:00,
2013-03-12 17:25:00,47.8,42.6,29.75,ESE,111,8.0,20.0,82,0.00,,,1.31,Wunderground v.1.15,2013-03-12 21:25:00,
2013-03-12 17:30:00,47.9,43.0,29.75,ESE,120,9.0,9.0,83,0.00,,,1.31,Wunderground v.1.15,2013-03-12 21:30:00,
2013-03-12 17:40:00,48.1,42.9,29.76,SE,132,9.0,18.0,82,0.00,,,1.31,Wunderground v.1.15,2013-03-12 21:40:00,
2013-03-12 17:45:00,48.2,43.0,29.76,ESE,117,9.0,18.0,82,0.00,,,1.31,Wunderground v.1.15,2013-03-12 21:45:00,
2013-03-12 17:55:00,48.3,41.4,29.77,SE,130,13.0,18.0,77,0.00,,,1.31,Wunderground v.1.15,2013-03-12 21:55:00,
2013-03-12 18:00:00,48.3,40.7,29.77,SE,124,11.0,18.0,75,0.00,,,1.31,Wunderground v.1.15,2013-03-12 22:00:00,
2013-03-12 18:10:00,48.1,40.5,29.77,SE,131,11.0,21.0,75,0.00,,,1.31,Wunderground v.1.15,2013-03-12 22:10:00,
2013-03-12 18:20:00,47.7,39.5,29.78,SE,124,13.0,13.0,73,0.00,,,1.31,Wunderground v.1.15,2013-03-12 22:20:00,
2013-03-12 18:30:00,46.7,38.1,29.78,ESE,121,12.0,21.0,72,0.00,,,1.31,Wunderground v.1.15,2013-03-12 22:30:00,
2013-03-12 18:40:00,46.1,37.6,29.79,SE,131,12.0,12.0,72,0.00,,,1.31,Wunderground v.1.15,2013-03-12 22:40:00,
2013-03-12 18:45:00,45.9,37.7,29.79,SE,134,10.0,23.0,73,0.00,,,1.31,Wunderground v.1.15,2013-03-12 22:45:00,
2013-03-12 18:55:00,45.6,36.7,29.80,SSE,148,11.0,23.0,71,0.00,,,1.31,Wunderground v.1.15,2013-03-12 22:55:00,
2013-03-12 19:00:00,45.3,36.4,29.80,ESE,118,11.0,23.0,71,0.00,,,1.31,Wunderground v.1.15,2013-03-12 23:00:00,
2013-03-12 19:10:00,44.9,36.1,29.81,SE,143,10.0,10.0,71,0.00,,,1.31,Wunderground v.1.15,2013-03-12 23:10:00,
2013-03-12 19:20:00,44.8,36.3,29.81,SE,124,8.0,8.0,72,0.00,,,1.31,Wunderground v.1.15,2013-03-12 23:20:00,
2013-03-12 19:25:00,44.7,36.2,29.82,ESE,115,7.0,19.0,72,0.00,,,1.31,Wunderground v.1.15,2013-03-12 23:25:00,
2013-03-12 19:35:00,44.7,36.2,29.82,SE,131,7.0,19.0,72,0.00,,,1.31,Wunderground v.1.15,2013-03-12 23:35:00,
2013-03-12 19:45:00,44.7,35.9,29.83,SE,143,8.0,19.0,71,0.00,,,1.31,Wunderground v.1.15,2013-03-12 23:45:00,
2013-03-12 19:55:00,44.7,35.9,29.83,ESE,121,8.0,19.0,71,0.00,,,1.31,Wunderground v.1.15,2013-03-12 23:55:00,
2013-03-12 20:00:00,44.7,35.9,29.83,ESE,118,8.0,8.0,71,0.00,,,1.31,Wunderground v.1.15,2013-03-13 00:00:00,
2013-03-12 20:10:00,44.5,35.7,29.83,ESE,120,7.0,7.0,71,0.00,,,1.31,Wunderground v.1.15,2013-03-13 00:10:00,
2013-03-12 20:15:00,44.4,35.6,29.84,ESE,110,6.0,9.0,71,0.00,,,1.31,Wunderground v.1.15,2013-03-13 00:15:00,
2013-03-12 20:25:00,44.2,35.0,29.83,ESE,114,7.0,16.0,70,0.00,,,1.31,Wunderground v.1.15,2013-03-13 00:25:00,
2013-03-12 20:35:00,43.8,35.0,29.83,SE,127,6.0,16.0,71,0.00,,,1.31,Wunderground v.1.15,2013-03-13 00:35:00,
2013-03-12 20:45:00,43.2,35.1,29.84,ESE,108,3.0,14.0,73,0.00,,,1.31,Wunderground v.1.15,2013-03-13 00:45:00,
2013-03-12 20:50:00,42.9,34.8,29.84,ESE,121,3.0,3.0,73,0.00,,,1.31,Wunderground v.1.15,2013-03-13 00:50:00,
2013-03-12 21:00:00,42.6,34.9,29.84,ESE,116,4.0,4.0,74,0.00,,,1.31,Wunderground v.1.15,2013-03-13 01:00:00,
2013-03-12 21:10:00,42.4,34.7,29.84,SE,139,4.0,9.0,74,0.00,,,1.31,Wunderground v.1.15,2013-03-13 01:10:00,
2013-03-12 21:15:00,42.4,34.7,29.84,ESE,115,5.0,9.0,74,0.00,,,1.31,Wunderground v.1.15,2013-03-13 01:15:00,
2013-03-12 21:20:00,42.2,34.5,29.85,SE,128,5.0,5.0,74,0.00,,,1.31,Wunderground v.1.15,2013-03-13 01:20:00,
2013-03-12 21:30:00,42.2,34.5,29.85,SE,124,5.0,9.0,74,0.00,,,1.31,Wunderground v.1.15,2013-03-13 01:30:00,
2013-03-12 21:35:00,42.2,34.2,29.85,ESE,108,7.0,9.0,73,0.00,,,1.31,Wunderground v.1.15,2013-03-13 01:35:00,
2013-03-12 21:45:00,42.1,34.1,29.86,ESE,117,6.0,14.0,73,0.00,,,1.31,Wunderground v.1.15,2013-03-13 01:45:00,
2013-03-12 21:50:00,42.2,34.2,29.86,ESE,120,6.0,14.0,73,0.00,,,1.31,Wunderground v.1.15,2013-03-13 01:50:00,
2013-03-12 22:00:00,42.5,33.0,29.86,ESE,111,9.0,14.0,69,0.00,,,1.31,Wunderground v.1.15,2013-03-13 02:00:00,
2013-03-12 22:10:00,42.7,32.5,29.86,SE,132,10.0,10.0,67,0.00,,,1.31,Wunderground v.1.15,2013-03-13 02:10:00,
2013-03-12 22:20:00,42.8,32.2,29.87,SE,130,10.0,17.0,66,0.00,,,1.31,Wunderground v.1.15,2013-03-13 02:20:00,
2013-03-12 22:25:00,42.8,32.2,29.87,ESE,118,9.0,17.0,66,0.00,,,1.31,Wunderground v.1.15,2013-03-13 02:25:00,
2013-03-12 22:35:00,42.7,32.5,29.87,SE,125,10.0,17.0,67,0.00,,,1.31,Wunderground v.1.15,2013-03-13 02:35:00,
2013-03-12 22:45:00,42.7,32.5,29.87,ESE,117,10.0,13.0,67,0.00,,,1.31,Wunderground v.1.15,2013-03-13 02:45:00,
2013-03-12 22:50:00,42.6,32.4,29.88,SE,125,10.0,22.0,67,0.00,,,1.31,Wunderground v.1.15,2013-03-13 02:50:00,
2013-03-12 23:00:00,42.5,32.3,29.87,SE,124,11.0,11.0,67,0.00,,,1.31,Wunderground v.1.15,2013-03-13 03:00:00,
2013-03-12 23:10:00,42.4,32.6,29.87,SE,132,8.0,18.0,68,0.00,,,1.31,Wunderground v.1.15,2013-03-13 03:10:00,
2013-03-12 23:15:00,42.3,32.5,29.88,ESE,119,8.0,18.0,68,0.00,,,1.31,Wunderground v.1.15,2013-03-13 03:15:00,
2013-03-12 23:25:00,42.1,32.7,29.88,ESE,117,8.0,18.0,69,0.00,,,1.31,Wunderground v.1.15,2013-03-13 03:25:00,
2013-03-12 23:35:00,41.9,32.5,29.88,ESE,120,9.0,18.0,69,0.00,,,1.31,Wunderground v.1.15,2013-03-13 03:35:00,
2013-03-12 23:45:00,41.7,31.9,29.88,SSE,163,11.0,19.0,68,0.00,,,1.31,Wunderground v.1.15,2013-03-13 03:45:00,
2013-03-12 23:50:00,41.6,31.8,29.88,SE,132,10.0,19.0,68,0.00,,,1.31,Wunderground v.1.15,2013-03-13 03:50:00,